| time (UTC) | temp F | wind direction | speed MPH | gust MPH | rain 1hr in | rain 24hr in | rain mn in | humidity % | barometer mb |
| 20260504003125 | 57 | 280 | 0.0 | 0.0 | 0.00 | 0.00 | 0.00 | 52 | 1017.3 |
| 20260504002122 | 58 | 280 | 0.0 | 0.0 | 0.00 | 0.00 | 0.00 | 51 | 1017.2 |
| 20260504001136 | 59 | 280 | 0.0 | 0.0 | 0.00 | 0.00 | 0.00 | 48 | 1017.1 |
| 20260504000128 | 60 | 280 | 0.0 | 0.0 | 0.00 | 0.00 | 0.00 | 45 | 1017.2 |
| 20260503235116 | 61 | 280 | 0.0 | 0.0 | 0.00 | 0.00 | 0.00 | 44 | 1017.1 |
| 20260503234153 | 61 | 280 | 0.0 | 0.0 | 0.00 | 0.00 | 0.00 | 42 | 1017.1 |
| 20260503233122 | 62 | 280 | 0.0 | 0.0 | 0.00 | 0.00 | 0.00 | 41 | 1017.1 |
| 20260503232116 | 63 | 280 | 0.0 | 0.0 | 0.00 | 0.00 | 0.00 | 38 | 1017.0 |
| 20260503231129 | 64 | 280 | 1.0 | 4.0 | 0.00 | 0.00 | 0.00 | 35 | 1017.0 |
| 20260503230124 | 64 | 278 | 1.0 | 4.0 | 0.00 | 0.00 | 0.00 | 35 | 1017.1 |
| 20260503225135 | 64 | 258 | 0.0 | 0.0 | 0.00 | 0.00 | 0.00 | 37 | 1017.1 |
| 20260503224126 | 65 | 258 | 0.0 | 1.0 | 0.00 | 0.00 | 0.00 | 35 | 1017.2 |
| 20260503223123 | 65 | 258 | 2.0 | 3.0 | 0.00 | 0.00 | 0.00 | 32 | 1017.3 |
| 20260503222115 | 65 | 264 | 2.0 | 7.0 | 0.00 | 0.00 | 0.00 | 32 | 1017.5 |
| 20260503221129 | 65 | 288 | 3.0 | 6.0 | 0.00 | 0.00 | 0.00 | 31 | 1017.5 |
| 20260503220120 | 65 | 183 | 2.0 | 4.0 | 0.00 | 0.00 | 0.00 | 32 | 1017.5 |
| 20260503215133 | 65 | 288 | 3.0 | 6.0 | 0.00 | 0.00 | 0.00 | 33 | 1017.6 |
| 20260503214125 | 65 | 239 | 2.0 | 5.0 | 0.00 | 0.00 | 0.00 | 32 | 1017.6 |
| 20260503213137 | 65 | 270 | 1.0 | 7.0 | 0.00 | 0.00 | 0.00 | 32 | 1017.6 |
| 20260503212128 | 65 | 242 | 4.0 | 7.0 | 0.00 | 0.00 | 0.00 | 32 | 1017.6 |
| 20260503211124 | 65 | 253 | 2.0 | 7.0 | 0.00 | 0.00 | 0.00 | 32 | 1017.7 |
| 20260503210114 | 64 | 284 | 4.0 | 8.0 | 0.00 | 0.00 | 0.00 | 31 | 1017.8 |
| 20260503205124 | 64 | 290 | 2.0 | 7.0 | 0.00 | 0.00 | 0.00 | 31 | 1017.7 |
| 20260503204155 | 64 | 213 | 1.0 | 4.0 | 0.00 | 0.00 | 0.00 | 31 | 1017.9 |
| 20260503203131 | 64 | 97 | 2.0 | 4.0 | 0.00 | 0.00 | 0.00 | 31 | 1018.0 |
| 20260503202124 | 64 | 288 | 3.0 | 8.0 | 0.00 | 0.00 | 0.00 | 30 | 1018.1 |
| 20260503201115 | 64 | 198 | 2.0 | 5.0 | 0.00 | 0.00 | 0.00 | 32 | 1018.2 |
| 20260503200128 | 63 | 277 | 3.0 | 7.0 | 0.00 | 0.00 | 0.00 | 30 | 1018.4 |
| 20260503195122 | 64 | 282 | 3.0 | 5.0 | 0.00 | 0.00 | 0.00 | 33 | 1018.6 |
| 20260503194133 | 64 | 260 | 3.0 | 7.0 | 0.00 | 0.00 | 0.00 | 33 | 1018.6 |
| 20260503193125 | 64 | 217 | 2.0 | 6.0 | 0.00 | 0.00 | 0.00 | 33 | 1018.8 |
| 20260503192121 | 65 | 237 | 3.0 | 6.0 | 0.00 | 0.00 | 0.00 | 31 | 1018.7 |
| 20260503191133 | 64 | 164 | 2.0 | 6.0 | 0.00 | 0.00 | 0.00 | 33 | 1018.8 |
| 20260503190145 | 64 | 254 | 4.0 | 7.0 | 0.00 | 0.00 | 0.00 | 32 | 1019.1 |
| 20260503185134 | 64 | 220 | 3.0 | 6.0 | 0.00 | 0.00 | 0.00 | 31 | 1019.2 |
| 20260503184128 | 64 | 240 | 3.0 | 6.0 | 0.00 | 0.00 | 0.00 | 35 | 1019.3 |
| 20260503183121 | 63 | 57 | 3.0 | 8.0 | 0.00 | 0.00 | 0.00 | 35 | 1019.5 |
| 20260503182133 | 63 | 290 | 2.0 | 5.0 | 0.00 | 0.00 | 0.00 | 35 | 1019.8 |
| 20260503181125 | 62 | 355 | 2.0 | 4.0 | 0.00 | 0.00 | 0.00 | 35 | 1019.8 |
| 20260503180121 | 62 | 281 | 3.0 | 9.0 | 0.00 | 0.00 | 0.00 | 35 | 1019.9 |
| 20260503175132 | 62 | 269 | 3.0 | 7.0 | 0.00 | 0.00 | 0.00 | 37 | 1019.9 |
| 20260503174125 | 62 | 194 | 3.0 | 5.0 | 0.00 | 0.00 | 0.00 | 36 | 1019.9 |
| 20260503173142 | 62 | 327 | 3.0 | 5.0 | 0.00 | 0.00 | 0.00 | 37 | 1020.2 |
| 20260503172133 | 61 | 288 | 0.0 | 5.0 | 0.00 | 0.00 | 0.00 | 39 | 1020.2 |
| 20260503171125 | 60 | 287 | 3.0 | 6.0 | 0.00 | 0.00 | 0.00 | 39 | 1020.4 |
| 20260503170137 | 60 | 288 | 1.0 | 5.0 | 0.00 | 0.00 | 0.00 | 41 | 1020.5 |
| 20260503160120 | 59 | 355 | 2.0 | 5.0 | 0.00 | 0.00 | 0.00 | 44 | 1021.3 |
| 20260503150122 | 55 | 360 | 2.0 | 4.0 | 0.00 | 0.00 | 0.00 | 48 | 1021.4 |
| 20260503140123 | 52 | 275 | 1.0 | 5.0 | 0.00 | 0.00 | 0.00 | 53 | 1021.2 |
| 20260503131147 | 48 | 13 | 0.0 | 0.0 | 0.00 | 0.00 | 0.00 | 73 | 1021.0 |
| 20260503130123 | 47 | 22 | 0.0 | 1.0 | 0.00 | 0.00 | 0.00 | 75 | 1021.1 |
| 20260503120117 | 39 | 204 | 0.0 | 0.0 | 0.00 | 0.00 | 0.00 | 90 | 1020.8 |
| 20260503110135 | 36 | 202 | 0.0 | 0.0 | 0.00 | 0.00 | 0.00 | 90 | 1020.3 |
| 20260503100131 | 37 | 202 | 0.0 | 0.0 | 0.00 | 0.00 | 0.00 | 90 | 1019.1 |
| 20260503090129 | 37 | 202 | 0.0 | 0.0 | 0.00 | 0.00 | 0.00 | 89 | 1018.5 |
| 20260503081151 | 38 | 202 | 0.0 | 0.0 | 0.00 | 0.00 | 0.00 | 88 | 1018.2 |
| 20260503080125 | 38 | 202 | 0.0 | 0.0 | 0.00 | 0.00 | 0.00 | 89 | 1018.1 |
| 20260503072136 | 39 | 202 | 0.0 | 0.0 | 0.00 | 0.00 | 0.00 | 88 | 1017.6 |
| 20260503071128 | 39 | 202 | 0.0 | 0.0 | 0.00 | 0.00 | 0.00 | 88 | 1017.5 |
| 20260503070120 | 39 | 202 | 0.0 | 0.0 | 0.00 | 0.00 | 0.00 | 88 | 1017.3 |
| 20260503060122 | 41 | 202 | 0.0 | 0.0 | 0.00 | 0.00 | 0.00 | 87 | 1017.1 |
| 20260503054125 | 41 | 202 | 0.0 | 0.0 | 0.00 | 0.00 | 0.00 | 87 | 1017.1 |
| 20260503053122 | 41 | 202 | 0.0 | 0.0 | 0.00 | 0.00 | 0.00 | 87 | 1017.1 |
| 20260503052132 | 41 | 202 | 0.0 | 0.0 | 0.00 | 0.00 | 0.00 | 87 | 1017.1 |
| 20260503051125 | 42 | 202 | 0.0 | 0.0 | 0.00 | 0.00 | 0.00 | 86 | 1017.0 |
| 20260503050118 | 42 | 202 | 0.0 | 0.0 | 0.00 | 0.00 | 0.00 | 86 | 1016.9 |
| 20260503045149 | 42 | 202 | 0.0 | 0.0 | 0.00 | 0.00 | 0.00 | 86 | 1016.9 |
| 20260503044122 | 43 | 202 | 0.0 | 0.0 | 0.00 | 0.00 | 0.00 | 86 | 1017.0 |
| 20260503043115 | 43 | 202 | 0.0 | 0.0 | 0.00 | 0.00 | 0.00 | 86 | 1017.0 |
| 20260503042133 | 43 | 202 | 0.0 | 0.0 | 0.00 | 0.00 | 0.00 | 85 | 1016.9 |
| 20260503041126 | 43 | 202 | 0.0 | 0.0 | 0.00 | 0.00 | 0.00 | 85 | 1016.7 |
| 20260503040118 | 44 | 202 | 0.0 | 0.0 | 0.00 | 0.00 | 0.00 | 85 | 1016.6 |
| 20260503035129 | 44 | 202 | 0.0 | 0.0 | 0.00 | 0.00 | 0.00 | 84 | 1016.6 |
| 20260503034125 | 45 | 202 | 0.0 | 0.0 | 0.00 | 0.00 | 0.00 | 85 | 1016.4 |
| 20260503033116 | 45 | 202 | 0.0 | 0.0 | 0.00 | 0.00 | 0.00 | 85 | 1016.4 |
| 20260503032129 | 45 | 202 | 0.0 | 0.0 | 0.00 | 0.00 | 0.00 | 85 | 1016.5 |
| 20260503031127 | 45 | 202 | 0.0 | 0.0 | 0.00 | 0.00 | 0.00 | 84 | 1016.5 |
| 20260503030119 | 45 | 202 | 0.0 | 0.0 | 0.00 | 0.00 | 0.00 | 84 | 1016.4 |
| 20260503025129 | 45 | 202 | 0.0 | 0.0 | 0.00 | 0.00 | 0.00 | 85 | 1016.3 |
| 20260503024121 | 45 | 202 | 0.0 | 0.0 | 0.00 | 0.00 | 0.00 | 85 | 1016.3 |
| 20260503023118 | 46 | 202 | 0.0 | 1.0 | 0.00 | 0.00 | 0.00 | 84 | 1016.2 |
| 20260503022130 | 46 | 202 | 0.0 | 2.0 | 0.00 | 0.00 | 0.00 | 84 | 1016.1 |
| 20260503021123 | 46 | 205 | 1.0 | 2.0 | 0.00 | 0.00 | 0.00 | 83 | 1016.1 |
| 20260503020121 | 46 | 205 | 0.0 | 0.0 | 0.00 | 0.00 | 0.00 | 83 | 1015.9 |
| 20260503015132 | 46 | 205 | 1.0 | 2.0 | 0.00 | 0.00 | 0.00 | 82 | 1015.8 |
| 20260503014125 | 47 | 195 | 0.0 | 1.0 | 0.00 | 0.00 | 0.00 | 81 | 1015.6 |
| 20260503013118 | 48 | 195 | 0.0 | 0.0 | 0.00 | 0.00 | 0.00 | 80 | 1015.2 |
| 20260503012135 | 48 | 195 | 0.0 | 0.0 | 0.00 | 0.00 | 0.00 | 79 | 1015.1 |
| 20260503011127 | 49 | 195 | 0.0 | 0.0 | 0.00 | 0.00 | 0.00 | 78 | 1014.9 |
| 20260503010119 | 49 | 195 | 0.0 | 0.0 | 0.00 | 0.00 | 0.00 | 77 | 1014.6 |
| 20260503005133 | 50 | 195 | 0.0 | 1.0 | 0.00 | 0.00 | 0.00 | 77 | 1014.4 |
| 20260503004125 | 50 | 195 | 0.0 | 0.0 | 0.00 | 0.00 | 0.00 | 77 | 1014.4 |